sat.trackr.live / text

‹ back to catalog

STARLINK-3330

NORAD 50836 · 2022-001AK

PAYLOAD ACTIVE UNKNOWN

§ Identity

Operator
Country
US
Launch date
2022-01-06
Launch site
AFETR
Launch vehicle
Mass (kg)
RCS (m²)

Purposes: comms

External: N2YO · Heavens-Above · Gunter

§ Orbital elements

Epoch: 2026-09-19T22:01:59.013696Z

Period
94.01 min
Inclination
53.1610°
Eccentricity
0.0001062
Mean motion
15.31703226 rev/d
Perigee alt
470.0 km
Apogee alt
471.5 km
Semi-major
6,848.9 km
B*
2.5485e-5
RAAN
12.4871°
Arg perigee
75.5290°
Mean anomaly
284.5829°
Rev number
25,968

§ Raw data

STARLINK-33301 50836U 22001AK  26262.91804414  .00000426  00000+0  25485-4 0  99952 50836  53.1610  12.4871 0001062  75.5290 284.5829 15.31703226259688

JSON: /api/v1/satellites/50836 · /tle

For live sub-satellite position, see the globe view (requires WebGL).

§ Visibility from observer

Set your observer location to see the next 7 days of passes ≥ 10°. The values pass through the URL so the page stays shareable.

No JS? Fill the form by hand. The geolocation button needs JavaScript.